Weather History for Warsaw, IN

Change the Weather History Date:

Tuesday, February 26, 2013

  Actual Average Record
Temperature  
Mean Temperature 32 °F -  
Max Temperature 33 °F 39 °F 68 °F (1957)
Min Temperature 32 °F 18 °F -21 °F (1963)
Degree Days  
Heating Degree Days 32    
Moisture  
Dew Point 29 °F    
Average Humidity 88    
Maximum Humidity 100    
Minimum Humidity 69    
Precipitation  
Precipitation 0.44 in - - ()
Sea Level Pressure  
Sea Level Pressure 29.63 in    
Wind  
Wind Speed 13 mph (East)    
Max Wind Speed 21 mph    
Max Gust Speed 31 mph    
Visibility 6 miles    
Events Rain , Snow    
Averages and records for this station are not official NWS values.
T = Trace of Precipitation, MM = Missing Value Source: NWS Daily Summary

Daily Weather History Graph

Daily Weather History Graph

Search for Another Location

Airport:

Trip Planner

Search our weather history database for the weather conditions in past years. The results will help you decide how hot, cold, wet, or windy it might be!

Date:

Astronomy

Feb. 26, 2013 Rise Set
Actual Time 7:22 AM EST 6:30 PM EST
Civil Twilight 6:54 AM EST 6:58 PM EST
Nautical Twilight 6:22 AM EST 7:30 PM EST
Astronomical Twilight 5:50 AM EST 8:02 PM EST
Moon 7:48 PM EST (2/26) 7:23 AM EST (2/26)
Length of Visible Light 12h 04m
Length of Day
11h 08m
Full, 99% of the Moon is Illuminated
Feb 26
Full
Mar 4
Last Quarter
Mar 11
New
Mar 19
First Quarter
Mar 27
Full

Hourly Weather History & Observations

Time (EST) Temp. Windchill Dew Point Humidity Pressure Visibility Wind Dir Wind Speed Gust Speed Precip Events Conditions
12:15 AM 32.0 °F 23.0 °F 26.6 °F 80% 29.99 in 10.0 mi East 11.5 mph - N/A   Clear
12:35 AM 32.0 °F 22.1 °F 24.8 °F 75% 29.98 in 10.0 mi East 13.8 mph 19.6 mph N/A   Clear
1:15 AM 32.0 °F 22.1 °F 24.8 °F 75% 29.97 in 10.0 mi ENE 13.8 mph 18.4 mph N/A   Clear
1:35 AM 32.0 °F 22.5 °F 24.8 °F 75% 29.97 in 10.0 mi ENE 12.7 mph - N/A   Clear
1:55 AM 32.0 °F 23.0 °F 24.8 °F 75% 29.96 in 10.0 mi ENE 11.5 mph - N/A   Clear
2:15 AM 32.0 °F 21.6 °F 24.8 °F 75% 29.95 in 10.0 mi East 15.0 mph - N/A   Clear
2:35 AM 32.0 °F 22.5 °F 24.8 °F 75% 29.95 in 10.0 mi ENE 12.7 mph - N/A   Clear
2:55 AM 32.0 °F 22.5 °F 24.8 °F 75% 29.92 in 10.0 mi East 12.7 mph - N/A   Clear
3:15 AM 32.0 °F 21.6 °F 24.8 °F 75% 29.91 in 10.0 mi East 15.0 mph 19.6 mph N/A   Clear
3:35 AM 32.0 °F 21.2 °F 24.8 °F 75% 29.89 in 10.0 mi ENE 16.1 mph 20.7 mph N/A   Clear
3:55 AM 32.0 °F 22.1 °F 24.8 °F 75% 29.86 in 10.0 mi ENE 13.8 mph 23.0 mph N/A   Clear
4:15 AM 32.0 °F 22.5 °F 24.8 °F 75% 29.86 in 10.0 mi East 12.7 mph - N/A   Clear
4:35 AM 32.0 °F 22.5 °F 24.8 °F 75% 29.86 in 10.0 mi East 12.7 mph - N/A   Clear
5:15 AM 32.0 °F 20.8 °F 24.8 °F 75% 29.82 in 10.0 mi ENE 17.3 mph - N/A   Clear
5:35 AM 32.0 °F 20.5 °F 24.8 °F 75% 29.82 in 10.0 mi East 18.4 mph 25.3 mph N/A   Clear
5:55 AM 32.0 °F 20.5 °F 24.8 °F 75% 29.80 in 10.0 mi ENE 18.4 mph 25.3 mph N/A   Clear
6:15 AM 32.0 °F 20.1 °F 24.8 °F 75% 29.78 in 10.0 mi ENE 19.6 mph 26.5 mph N/A   Clear
6:35 AM 32.0 °F 21.6 °F 24.8 °F 75% 29.79 in 10.0 mi East 15.0 mph 26.5 mph N/A   Clear
6:55 AM 32.0 °F 19.8 °F 24.8 °F 75% 29.77 in 10.0 mi ENE 20.7 mph 26.5 mph N/A   Clear
7:15 AM 32.0 °F 20.1 °F 23.0 °F 69% 29.76 in 10.0 mi ENE 19.6 mph 26.5 mph N/A   Scattered Clouds
7:35 AM 32.0 °F 19.8 °F 23.0 °F 69% 29.77 in 10.0 mi East 20.7 mph 29.9 mph N/A   Mostly Cloudy
7:55 AM 32.0 °F 21.6 °F 23.0 °F 69% 29.78 in 10.0 mi East 15.0 mph 27.6 mph N/A   Overcast
8:15 AM 32.0 °F 21.2 °F 24.8 °F 75% 29.78 in 10.0 mi East 16.1 mph - N/A   Overcast
8:35 AM 32.0 °F 19.8 °F 24.8 °F 75% 29.77 in 10.0 mi East 20.7 mph 25.3 mph N/A   Overcast
9:15 AM 32.0 °F 19.8 °F 26.6 °F 80% 29.72 in 5.0 mi East 20.7 mph 31.1 mph N/A Rain Rain
9:55 AM 32.0 °F 21.6 °F 28.4 °F 87% 29.67 in 4.0 mi East 15.0 mph 20.7 mph 0.02 in Rain Light Rain
10:35 AM 32.0 °F 22.1 °F 28.4 °F 87% 29.64 in 7.0 mi East 13.8 mph 20.7 mph N/A Rain Light Rain
10:55 AM 32.0 °F 21.2 °F 28.4 °F 87% 29.62 in 10.0 mi East 16.1 mph 20.7 mph N/A Rain Rain
11:15 AM 32.0 °F 21.6 °F 30.2 °F 93% 29.59 in 7.0 mi East 15.0 mph 23.0 mph 0.01 in Rain Light Rain
11:35 AM 32.0 °F 22.5 °F 30.2 °F 93% 29.57 in 7.0 mi East 12.7 mph 16.1 mph 0.01 in Rain Rain
11:55 AM 32.0 °F 22.1 °F 30.2 °F 93% 29.55 in 7.0 mi East 13.8 mph - 0.03 in Snow Light Snow
12:35 PM 32.0 °F 23.6 °F 32.0 °F 100% 29.56 in 2.5 mi East 10.4 mph 18.4 mph 0.04 in Rain Heavy Rain
12:55 PM 32.0 °F 24.2 °F 32.0 °F 100% 29.56 in 1.5 mi East 9.2 mph - 0.14 in   Overcast
1:15 PM 32.0 °F 25.6 °F 32.0 °F 100% 29.54 in 2.0 mi East 6.9 mph - 0.04 in Rain Rain
1:35 PM 32.0 °F 24.8 °F 32.0 °F 100% 29.53 in 3.0 mi East 8.1 mph - 0.07 in Rain Heavy Rain
2:15 PM 32.0 °F 22.1 °F 32.0 °F 100% 29.50 in 3.0 mi East 13.8 mph 20.7 mph 0.02 in Snow Light Snow
2:35 PM 33.8 °F 22.8 °F 32.0 °F 93% 29.49 in 5.0 mi East 18.4 mph 24.2 mph 0.03 in   Overcast
2:55 PM 33.8 °F 22.8 °F 32.0 °F 93% 29.48 in 2.5 mi East 18.4 mph 27.6 mph 0.03 in Snow Light Snow
3:15 PM 33.8 °F 22.8 °F 32.0 °F 93% 29.48 in 2.5 mi East 18.4 mph 29.9 mph 0.01 in   Overcast
3:35 PM 33.8 °F 22.5 °F 32.0 °F 93% 29.48 in 4.0 mi East 19.6 mph 25.3 mph 0.02 in Snow Light Snow
3:55 PM 33.8 °F 23.2 °F 32.0 °F 93% 29.48 in 1.8 mi East 17.3 mph 23.0 mph 0.02 in Snow Light Snow
4:15 PM 32.0 °F 20.8 °F 32.0 °F 100% 29.47 in 1.5 mi East 17.3 mph 23.0 mph N/A Snow Light Snow
4:35 PM 32.0 °F 21.2 °F 32.0 °F 100% 29.47 in 2.0 mi East 16.1 mph 25.3 mph 0.01 in Snow Light Snow
4:55 PM 33.8 °F 23.2 °F 32.0 °F 93% 29.47 in 3.0 mi East 17.3 mph 21.9 mph 0.02 in Rain Light Rain
5:15 PM 33.8 °F 23.9 °F 32.0 °F 93% 29.47 in 2.5 mi East 15.0 mph 18.4 mph N/A Rain Light Rain
5:35 PM 33.8 °F 23.9 °F 32.0 °F 93% 29.47 in 1.5 mi East 15.0 mph 18.4 mph 0.01 in Rain Light Rain
5:55 PM 32.0 °F 22.5 °F 32.0 °F 100% 29.47 in 1.2 mi East 12.7 mph 20.7 mph 0.01 in Snow Light Snow
6:15 PM 32.0 °F 24.2 °F 32.0 °F 100% 29.47 in 1.8 mi East 9.2 mph 18.4 mph 0.01 in Snow Snow
6:35 PM 32.0 °F 23.0 °F 32.0 °F 100% 29.47 in 5.0 mi East 11.5 mph - 0.02 in Rain Light Rain
6:55 PM 32.0 °F 23.0 °F 32.0 °F 100% 29.47 in 10.0 mi East 11.5 mph - 0.03 in Rain Light Rain
7:15 PM 32.0 °F 23.6 °F 32.0 °F 100% 29.47 in 7.0 mi East 10.4 mph - 0.01 in Snow Light Snow
7:35 PM 32.0 °F 24.2 °F 32.0 °F 100% 29.47 in 4.0 mi East 9.2 mph - 0.01 in Snow Light Snow
7:55 PM 32.0 °F 24.8 °F 32.0 °F 100% 29.47 in 7.0 mi ENE 8.1 mph - 0.02 in Rain Light Rain
8:15 PM 32.0 °F 25.6 °F 32.0 °F 100% 29.46 in 7.0 mi ENE 6.9 mph - 0.01 in Rain Light Rain
8:35 PM 32.0 °F 25.6 °F 32.0 °F 100% 29.46 in 7.0 mi ENE 6.9 mph - 0.02 in Rain Light Rain
8:55 PM 32.0 °F 25.6 °F 32.0 °F 100% 29.46 in 5.0 mi ENE 6.9 mph - 0.03 in Rain Light Rain
9:15 PM 32.0 °F 27.5 °F 32.0 °F 100% 29.46 in 7.0 mi ENE 4.6 mph - N/A Rain Light Rain
9:35 PM 32.0 °F 27.5 °F 32.0 °F 100% 29.46 in 7.0 mi ENE 4.6 mph - 0.01 in Rain Light Rain
9:55 PM 32.0 °F - 32.0 °F 100% 29.46 in 3.0 mi Calm Calm - 0.01 in Rain Light Rain
10:15 PM 32.0 °F - 32.0 °F 100% 29.45 in 3.0 mi Calm Calm - N/A Rain Light Rain
10:35 PM 32.0 °F - 32.0 °F 100% 29.45 in 2.5 mi Calm Calm - 0.01 in Rain Light Rain
10:55 PM 32.0 °F - 32.0 °F 100% 29.45 in 2.0 mi Calm Calm - 0.01 in Rain Rain
11:15 PM 32.0 °F - 32.0 °F 100% 29.45 in 1.5 mi Calm Calm - N/A Snow Light Snow
11:35 PM 32.0 °F - 32.0 °F 100% 29.45 in 1.2 mi Calm Calm - N/A Snow Light Snow
11:55 PM 32.0 °F - 32.0 °F 100% 29.45 in 1.0 mi Calm Calm - N/A Snow Light Snow